TimeEST,TemperatureF,Dew PointF,Humidity,Sea Level PressureIn,VisibilityMPH,Wind Direction,Wind SpeedMPH,Gust SpeedMPH,PrecipitationIn,Events,Conditions,WindDirDegrees,DateUTC
12:53 AM,34.0,19.9,56,29.95,10.0,NNW,8.1,17.3,N/A,,Overcast,340,2013-03-05 05:53:00
2:53 AM,32.0,19.9,61,29.94,10.0,North,10.4,-,N/A,,Scattered Clouds,350,2013-03-05 07:53:00
3:53 AM,32.0,19.9,61,29.96,10.0,NNW,8.1,-,N/A,,Clear,340,2013-03-05 08:53:00
4:53 AM,30.9,19.9,64,29.98,10.0,NW,5.8,-,N/A,,Mostly Cloudy,320,2013-03-05 09:53:00
5:53 AM,30.9,19.9,64,29.99,10.0,North,3.5,-,N/A,,Scattered Clouds,350,2013-03-05 10:53:00
8:53 AM,36.0,21.0,55,30.02,10.0,North,9.2,-,N/A,,Clear,360,2013-03-05 13:53:00
9:53 AM,37.9,21.9,53,30.01,10.0,North,9.2,-,N/A,,Clear,350,2013-03-05 14:53:00
10:53 AM,39.9,23.0,51,30.00,10.0,North,5.8,-,N/A,,Clear,360,2013-03-05 15:53:00
11:53 AM,43.0,23.0,45,29.99,10.0,NNW,5.8,-,N/A,,Clear,330,2013-03-05 16:53:00
12:53 PM,44.1,23.0,43,29.98,10.0,NE,3.5,-,N/A,,Clear,50,2013-03-05 17:53:00
1:53 PM,46.9,25.0,42,29.97,10.0,Variable,4.6,-,N/A,,Clear,0,2013-03-05 18:53:00
2:53 PM,48.0,23.0,37,29.96,10.0,NNE,3.5,-,N/A,,Clear,20,2013-03-05 19:53:00
3:53 PM,46.9,23.0,39,29.94,10.0,Calm,Calm,-,N/A,,Clear,0,2013-03-05 20:53:00
4:53 PM,46.9,24.1,41,29.93,10.0,ENE,8.1,-,N/A,,Clear,60,2013-03-05 21:53:00
5:53 PM,44.1,24.1,45,29.96,10.0,SE,5.8,-,N/A,,Clear,130,2013-03-05 22:53:00
6:53 PM,42.1,23.0,47,29.97,10.0,SSE,5.8,-,N/A,,Clear,160,2013-03-05 23:53:00
7:53 PM,39.0,26.1,60,29.97,10.0,South,5.8,-,N/A,,Clear,180,2013-03-06 00:53:00
8:53 PM,37.0,26.1,65,29.98,10.0,South,8.1,-,N/A,,Clear,190,2013-03-06 01:53:00
9:53 PM,36.0,26.1,67,29.97,10.0,Calm,Calm,-,N/A,,Clear,0,2013-03-06 02:53:00
10:53 PM,34.0,25.0,70,29.95,10.0,SE,4.6,-,N/A,,Clear,130,2013-03-06 03:53:00
11:53 PM,33.1,26.1,75,29.94,10.0,ESE,3.5,-,N/A,,Clear,110,2013-03-06 04:53:00